Regional Weather Roundup
Issued by NWS

Home | Current Version | Previous Version | Graphics & Text | Print | Product List | Glossary On
Versions: 1 2 3 4 5 6 7 8 9 10 11 12 13 14 15 16 17 18 19 20 21 22 23 24 25 26 27
000
ASUS45 KBOU 161407
RWRCO

WEATHER ROUNDUP FOR COLORADO
NATIONAL WEATHER SERVICE DENVER/BOULDER CO
800 AM MDT MON OCT 16 2017

NOTE: "FAIR" INDICATES FEW OR NO CLOUDS BELOW 12000 FEET WITH NO
SIGNIFICANT WEATHER AND/OR OBSTRUCTIONS TO VISIBILITY.

COZ001>005-013-030-031-161500-
...NORTHWEST COLORADO...

CITY           SKY/WX    TMP DP  RH WIND       PRES   REMARKS
CRAIG          FAIR      21  16  81 CALM      30.48R
HAYDEN         FAIR      32  17  54 E12       30.49R WCI  23
MEEKER         FAIR      23  16  74 CALM      30.49R
RABBIT EARS PA FAIR      34   1  25 W7        30.58R WCI  28
STEAMBOAT SPGS FAIR      24  16  71 CALM      30.50R
WALDEN         FAIR      32  12  43 SW5       30.49S WCI  27
$$

COZ006>008-011-161500-
...WEST CENTRAL VALLEYS...

CITY           SKY/WX    TMP DP  RH WIND       PRES   REMARKS
GRAND JUNCTION FAIR      33  16  49 E5        30.48R WCI  29
MONTROSE       FAIR      28  13  53 S8        30.53R WCI  20
EAGLE          FAIR      24  17  74 CALM      30.58R
RIFLE          FAIR      26  17  68 CALM      30.52S
DELTA          FAIR      30  13  49 CALM      30.51S
NUCLA          FAIR      30   5  34 E8        30.55R WCI  23
$$

COZ017>023-064>068-161500-
...SOUTHWEST COLORADO...

CITY           SKY/WX    TMP DP  RH WIND       PRES   REMARKS
DURANGO        FAIR      26  14  60 NE6       30.53R WCI  19
CORTEZ         FAIR      24  14  65 E3        30.50R
PAGOSA SPRINGS FAIR      28  13  52 CALM      30.56R
TELLURIDE      NOT AVBL
WOLF CREEK PAS NOT AVBL
$$

COZ009-010-012-014-032>034-037-058>063-161500-
...CENTRAL COLORADO...

CITY           SKY/WX    TMP DP  RH WIND       PRES   REMARKS
ASPEN          FAIR      26  11  52 S7        30.53R WCI  18
BUENA VISTA    FAIR      25  13  61 W3        30.53S
COPPER MTN     SNOW      34   1  25 W15       30.67R VSB<1/4 WCI  24
BERTHOUD PASS  FAIR      30  21  69 NW35G48   30.60R WCI  14
COTTONWOOD PAS FAIR      46 -15   7 CALM      30.58R
GUNNISON       FAIR      16   9  74 NE3       30.64R
KREMMLING      FAIR      23  18  80 CALM      30.57S
LEADVILLE      FAIR      33  -8  17 NE3       30.57R
SALIDA         NOT AVBL
SUNLIGHT       FAIR      32  -8  18 SW8       30.67R WCI  25
WILKERSON PASS FAIR      34  -8  16 SW12G17   30.64S WCI  25
$$

COZ069>075-161500-
...SAN LUIS VALLEY/SANGRE DE CRISTO MOUNTAINS...

CITY           SKY/WX    TMP DP  RH WIND       PRES   REMARKS
ALAMOSA        FAIR      20  14  77 CALM      30.56R
DEL NORTE      FAIR      31   7  35 W8        30.58R WCI  24
LA VETA PASS   FAIR      34  10  37 SW31G39   30.68S WCI  20
SAGUACHE       FAIR      30   5  34 NW14      30.57S WCI  20
$$

COZ035-036-038>040-161500-
...NORTHERN COLORADO FRONT RANGE...

CITY           SKY/WX    TMP DP  RH WIND       PRES   REMARKS
DENVER INTL AP MOCLDY    51  14  22 SW18      30.30S
DMNS CITY PARK   N/A     48  19  31 E8        30.32R
AURORA         MOCLDY    46  17  32 S8        30.33R
FRONT RANGE AP MOCLDY    50  18  27 S17       30.32S
ERIE MUNI ARPT FAIR      31  28  89 CALM      30.36R
BOULDER MUN AP FAIR      43  27  52 SE3       30.30S
CENTENNIAL     MOCLDY    47  18  31 E7        30.34R
BROOMFIELD     MOCLDY    52  19  28 W12       30.31S
FORT COLLINS   FAIR      37  26  64 E5        30.31S
LONGMONT       FAIR      35  29  79 W5        30.33R WCI  31
$$

COZ041-046-047-076>085-087-088-161500-
...PIKES PEAK/PALMER DIVIDE AND SOUTHERN FOOTHILLS...

CITY           SKY/WX    TMP DP  RH WIND       PRES   REMARKS
COLO. SPRINGS  MOCLDY    44  24  45 NE6       30.39S
A. F. ACADEMY  FAIR      40  19  43 N3        30.38S
SCHRIEVER AFB  FAIR      45  20  37 N5        30.38F
CHEYENNE MTN   MOCLDY    55   9  16 CALM      30.35S
ELLICOTT       FAIR     N/A N/A N/A CALM      30.37S
FALCON         FAIR      42  18  37 NW7       30.40F
FORT CARSON    PTCLDY    45  21  38 N7        30.36F
LIMON          FAIR      29  26  89 N6        30.35F WCI  23
MONUMENT HILL  NOT AVBL
CANON CITY     CLEAR     52  18  25 W14       30.35F
WALSENBURG     FAIR      55  16  21 SW12      30.39S
TRINIDAD       FAIR      42  20  41 NW8       30.39F
$$

COZ042>045-048>051-090-091-161500-
...NORTHEAST COLORADO...

CITY           SKY/WX    TMP DP  RH WIND       PRES   REMARKS
GREELEY ARPT   FAIR      32  28  85 CALM      30.31S
AKRON          FAIR      47  25  42 W9        30.28S
BURLINGTON     FAIR      41  31  67 SW6       30.31S
WRAY           FAIR      41  30  65 W6        30.28F
YUMA           FAIR      34  30  86 SW6       30.28S WCI  29
STERLING       FAIR      32  32 100 S7        30.27F WCI  26
HOLYOKE        FAIR      37  32  81 SW5       30.28S
FORT MORGAN    FAIR      29  27  91 W9        30.30F WCI  21
$$

COZ086-089-092>099-161500-
...SOUTHEAST COLORADO...

CITY           SKY/WX    TMP DP  RH WIND       PRES   REMARKS
PUEBLO         FAIR      35  27  72 CALM      30.35F
LA JUNTA       FAIR      40  28  62 W7        30.35S
LAMAR          FLURRIES  36  30  79 W6        30.33S
SPRINGFIELD      N/A     36  32  85 SW9       30.35S
$$




USA.gov is the U.S. government's official web portal to all federal, state and local government web resources and services.